Location: Atherton
(17.2661°S, 145.4859°E)
Time: 23:09:41
(UTC+10:00)

Vanguard 1 - Pass Details

Date: 01 July 2025
Orbit: 649 x 3822 km, 34.2° (Epoch: 17 July)

Event Time Altitude Azimuth Distance (km) Brightness Sun altitude
Rises 13:13:08 0° 334° (NNW) 7,052 15.1 47.7°
Reaches altitude 10° 13:18:25 10° 343° (NNW) 6,379 15.2 47.3°
Maximum altitude 13:37:11 34° 41° (NE) 5,141 14.4 45.7°
Drops below altitude 10° 13:55:29 10° 97° (E) 6,361 14.0 43.6°
Sets 14:00:33 0° 106° (ESE) 7,046 14.1 43.0°
